TOPSWRTT 000
TTAA00 KICT 010703

Wichita AWIPS Roundup
National Weather Service Wichita KS
200 AM CDT FRI AUG 01 2014

....Central Kansas....
  
CITY           SKY/WX    TMP DP  RH WIND       PRES   REMARKS
RUSSELL        CLEAR     66  58  75 S12       30.05S                  
SALINA         CLEAR     63  55  75 S5        30.06S                  
GREAT BEND       N/A     64  57  77 SW8       30.08S                  
ELLSWORTH      CLEAR     68  57  68 S3        30.06S                  
MCPHERSON      CLEAR     63  57  82 S5        30.07S                  
HAYS           CLEAR     64  55  72 SW8       30.08S                  

....South Central Kansas....
  
CITY           SKY/WX    TMP DP  RH WIND       PRES   REMARKS
HUTCHINSON     CLEAR     58  54  86 S3        30.08S                  
NEWTON         CLEAR     66  57  72 SW7       30.11S                  
KINGMAN        CLEAR     64  61  88 SW3       30.10R                  
WICHITA (ICT)  PTCLDY    65  61  87 SW7       30.08S                  
JABARA ARPT    CLEAR     66  62  87 S8        30.08R                  
MCCONNELL AFB  CLEAR     65  65 100 S8        30.09R                  
EL DORADO      FAIR      64  61  88 S6        30.08S                  
HARPER           N/A     66  61  82 CALM      30.12S                  
WELLINGTON     CLEAR     66  64  94 CALM      30.10S                  
WINFIELD       CLEAR     65  65 100 S3        30.10S                  
 
....Southeast Kansas....
  
CITY           SKY/WX    TMP DP  RH WIND       PRES   REMARKS
EUREKA         CLEAR     64  61  88 S3        30.06F                  
CHANUTE        CLEAR     66  64  93 SW6       30.07F                  
PARSONS        FOG       63  62  97 CALM      30.08S VSB 1/2          
COFFEYVILLE    CLEAR     66  65  96 CALM      30.06F                  
INDEPENDENCE     N/A     64  63  94 CALM      30.07S FOG              
FORT SCOTT     CLEAR     68  64  88 MISG      30.05S                  
PITTSBURG      CLEAR     65  65 100 CALM      30.07S                  

....Western Kansas....
  
CITY           SKY/WX    TMP DP  RH WIND       PRES   REMARKS
GOODLAND       PTCLDY    63  52  67 W10       30.17S                  
HILL CITY      CLEAR     66  53  63 W3        30.07F                  
LIBERAL        MOCLDY    64  55  72 SW3       30.17F                  
GARDEN CITY    PTCLDY    62  56  80 W7        30.14F                  
DODGE CITY     PTCLDY    65  57  75 S8        30.14S                  
PRATT          CLEAR     63  57  82 SW7       30.12S                  
MEDICINE LODGE   N/A     63  61  93 N3        30.10S                  

....Northeast Kansas....
  
CITY           SKY/WX    TMP DP  RH WIND       PRES   REMARKS
CONCORDIA      CLEAR     68  55  63 S12       30.03F                  
TOPEKA         PTCLDY    66  59  78 CALM      30.05R                  
MANHATTAN      CLEAR     69  57  65 SW7       30.04F                  
LAWRENCE       PTCLDY    64  59  83 E5        30.05F                  
OLATHE         CLEAR     65  60  84 S5        30.05F                  
EMPORIA        CLEAR     62  58  86 S7        30.06S                  

....Oklahoma....
  
CITY           SKY/WX    TMP DP  RH WIND       PRES   REMARKS
GAGE           MOCLDY    62  59  90 CALM      30.13F                  
PONCA CITY     FOG       65  63  93 CALM      30.08S VSB 1/2          
BARTLESVILLE   FOG       62  62 100 CALM      30.08S VSB 3/4          
TULSA          PTCLDY    68  66  93 S6        30.06S                  
OKLAHOMA CITY  PTCLDY    66  63  90 CALM      30.10R FOG              

Note: "fair" indicates few or no clouds below 12,000 feet with no
significant weather and/or obstructions to visibility.
  

USA.gov is the U.S. government's official web portal to all federal, state and local government web resources and services.